Voltar ao catálogo

FENGYUN 1C DEB

LostSSO
NORAD 31518·DEBRIS·🇨🇳 China

Lançado May 10, 1999 de Taiyuan Satellite Launch Center

Loading…

Próximas Passagens (próximas 24 horas)

TLE

ObsoletoSource: Space-Track

Época: Nov 11, 2017, 16:30 UTC

1 31518U 99025BXH 17315.68762109 +.00001196 +00000-0 +71446-3 0  9991
2 31518 099.1743 281.2477 0097542 138.7924 221.9796 14.06800122536166

Acompanhe FENGYUN 1C DEB em tempo real com AllMySat

Download on the App Store